{"data":{"norad_id":53719,"epoch":"2026-05-25T05:24:12.504672Z","epoch_age_seconds":66264,"freshness":"FRESH","line1":"1 53719U 22107V   26145.22514473 -.00001191  00000+0 -56736-4 0  9997","line2":"2 53719  53.2146 240.1631 0001412  93.5917 266.5237 15.08840315206393","mean_motion":15.08840315,"eccentricity":0.0001412,"inclination_deg":53.2146,"raan_deg":240.1631,"arg_perigee_deg":93.5917,"mean_anomaly_deg":266.5237,"bstar":-5.6736e-5,"rev_number":20639,"period_min":95.437534753305,"perigee_km":538.76562156032,"apogee_km":540.71923071026,"semimajor_km":6917.8794261353,"source":"CELESTRAK","updated_at":"2026-05-25T13:38:17.534866Z"}}